Hourly Data Report for March 27, 2018

MIRAMICHI RCS
NEW BRUNSWICK

47°00'34.000" N
65°27'54.000" W
33.00 m
8100989
71744
ACQ

Download Data

Hourly Data (March 2018)
Hourly Data Report for March 27, 2018
TIME
LST
Temp Definition
°C
Dew Point Definition
°C
Rel Hum Definition
%
Precip. Amount Definition
mm

Wind Dir Definition
10's deg

Wind Spd Definition
km/h
Visibility Definition
km
Stn Press Definition
kPa
Hmdx Definition


Wind Chill Definition


Weather Definition


00:00 -10.2 -11.3 92 0.0 33 1   103.66   -11 LegendNANA
01:00 -12.3 -13.3 92 0.0 15 5   103.62   -16 LegendNANA
02:00 -13.5 -15.5 85 0.0   0   103.57     LegendNANA
03:00 -13.1 -14.4 89 0.0   0   103.52     LegendNANA
04:00 -13.6 -15.2 88 0.0   0   103.50     LegendNANA
05:00 -14.7 -16.4 87 0.0   0   103.47     LegendNANA
06:00 -15.5 -17.4 86 0.0 0 1   103.47   -16 LegendNANA
07:00 -14.7 -16.4 87 0.0 28 4   103.47   -18 LegendNANA
08:00 -11.2 -13.1 86 0.0   0   103.47     LegendNANA
09:00 -5.5 -10.3 69 0.0 28 3   103.45   -7 LegendNANA
10:00 -1.2 -9.9 52 0.0 12 5   103.44   -3 LegendNANA
11:00 1.7 -13.3 32 0.0 4 5   103.37     LegendNANA
12:00 2.8 -13.5 29 0.0 3 9   103.28     LegendNANA
13:00 3.0 -13.0 30 0.0 3 14   103.20     LegendNANA
14:00 3.6 -9.0 39 0.0 7 15   103.06     LegendNANA
15:00 3.4 -11.0 34 0.0 8 16   102.96     LegendNANA
16:00 2.2 -14.4 28 0.0 5 16   102.85     LegendNANA
17:00 1.5 -13.8 31 0.0 5 14   102.77     LegendNANA
18:00 -0.2 -13.8 35 0.0 6 14   102.71   -4 LegendNANA
19:00 -3.0 -9.7 60 0.0 6 13   102.59   -8 LegendNANA
20:00 -4.0 -8.2 73 0.0 5 9   102.51   -8 LegendNANA
21:00 -4.7 -7.0 84 0.0 4 9   102.49   -9 LegendNANA
22:00 -4.7 -7.0 84 0.0 36 5   102.42   -7 LegendNANA
23:00 -4.6 -7.2 82 0.0 3 9   102.28   -8 LegendNANA

Notes on Data Quality.

Legend

  • E = Estimated
  • M = Missing
  • NA = Not Available*
  • [empty] = Indicates an unobserved value
Date modified: